Starlink 35714

operational
NORAD ID: 66214 Int'l Des: 2025-244 Owner: SPXS Country: US Constellation: starlink
NOTLE

Über Starlink 35714

Beschreibung wird geladen...

Live-Position

3D-Globus wird geladen...

Nächste Überflüge

Höhenverlauf

Altitude vs Time

uPlot chart will show altitude changes over time

Zweizeiliger Elementsatz

1 66214U 25244J 25349.89888803 .00075599 00000-0 18772-2 0 9993
2 66214 53.1615 261.0340 0002406 139.6480 220.4703 15.39684953 8808
Epoch: 15. Dez. 2025 • Age: 11 hours

Aktueller Status

Höhe 452.7 km
Geschwindigkeit 7.64 km/s
Subsatellitenpunkt -15.84°S, 35.59°E
Startdatum 28. Okt. 2025
Alter 0.1 years
Typ internet

Technische Details

Klassifizierung Payload
Masse 575.00 kg
Trockenmasse 530.00 kg
Gesamtmasse 575.00 kg
Länge 0.30 m
Durchmesser 4.10 m
Spannweite 29.00 m
Form Box + pan
Hersteller SPXS
Bus-Typ Starlink V2MO
Phasenstatus In Orbit
Besitzer/Staat SPXS/US

Große Konstellationen

Loading constellations...